Weather History for KGEV - January, 2001

Change the Weather History Date:

Thursday, January 4, 2001

  Actual Average Record
Temperature  
Mean Temperature 24 °F -  
Max Temperature 28 °F 44 °F 66 °F (2004)
Min Temperature 21 °F 23 °F 5 °F (1979)
Degree Days  
Heating Degree Days 40    
Moisture  
Dew Point 15 °F    
Average Humidity 69    
Maximum Humidity 86    
Minimum Humidity 54    
Precipitation  
Precipitation 0.00 in - - ()
Sea Level Pressure  
Sea Level Pressure 29.96 in    
Wind  
Wind Speed 15 mph (WNW)    
Max Wind Speed 22 mph    
Max Gust Speed 37 mph    
Visibility 10 miles    
Events      
Averages and records for this station are not official NWS values.
T = Trace of Precipitation, MM = Missing Value Source: NWS Daily Summary

Daily Weather History Graph

Daily Weather History Graph

Search for Another Location

Airport or City:

Trip Planner

Search our weather history database for the weather conditions in past years. The results will help you decide how hot, cold, wet, or windy it might be!

Date:

Astronomy

Jan. 04, 2001 Rise Set
Actual Time 7:37 AM EST 5:23 PM EST
Civil Twilight 7:09 AM EST 5:52 PM EST
Nautical Twilight 6:37 AM EST 6:24 PM EST
Astronomical Twilight 6:05 AM EST 6:55 PM EST
Moon 1:24 PM EST (1/4) 1:47 AM EST (1/4)
Length of Visible Light 10h 43m
Length of Day
9h 46m
Waxing Gibbous, 68% of the Moon is Illuminated
Jan 4
Waxing Gibbous
Jan 9
Full
Jan 16
Last Quarter
Jan 24
New
Feb 1
First Quarter

Hourly Weather History & Observations

Time (EST) Temp. Windchill Dew Point Humidity Pressure Visibility Wind Dir Wind Speed Gust Speed Precip Events Conditions
12:17 AM 21.2 °F 5.2 °F 6.8 °F 54% 29.97 in 10.0 mi West 21.9 mph 31.1 mph N/A   Overcast
12:37 AM 21.2 °F 6.4 °F 6.8 °F 54% 29.96 in 10.0 mi West 18.4 mph 26.5 mph N/A   Overcast
12:57 AM 21.2 °F 6.0 °F 6.8 °F 54% 29.95 in 10.0 mi West 19.6 mph 29.9 mph N/A   Overcast
1:17 AM 21.2 °F 6.4 °F 6.8 °F 54% 29.95 in 10.0 mi West 18.4 mph 25.3 mph N/A   Mostly Cloudy
1:37 AM 21.2 °F 5.6 °F 8.6 °F 58% 29.95 in 10.0 mi WNW 20.7 mph 31.1 mph N/A   Scattered Clouds
1:57 AM 21.2 °F 6.4 °F 6.8 °F 54% 29.95 in 10.0 mi West 18.4 mph 34.5 mph N/A   Mostly Cloudy
2:17 AM 21.2 °F 6.0 °F 8.6 °F 58% 29.96 in 10.0 mi WNW 19.6 mph 29.9 mph N/A   Overcast
2:37 AM 21.2 °F 14.9 °F 8.6 °F 58% 29.97 in 10.0 mi NW 4.6 mph 21.9 mph N/A   Overcast
2:57 AM 21.2 °F - 8.6 °F 58% 29.97 in 10.0 mi Calm Calm - N/A   Overcast
3:17 AM 21.2 °F 9.5 °F 8.6 °F 58% 29.96 in 10.0 mi WNW 11.5 mph 32.2 mph N/A   Overcast
3:37 AM 21.2 °F 7.3 °F 8.6 °F 58% 29.96 in 10.0 mi WNW 16.1 mph 28.8 mph N/A   Overcast
3:57 AM 21.2 °F 6.4 °F 8.6 °F 58% 29.96 in 10.0 mi WNW 18.4 mph 32.2 mph N/A   Overcast
4:17 AM 21.2 °F 6.8 °F 8.6 °F 58% 29.95 in 10.0 mi West 17.3 mph 26.5 mph N/A   Overcast
4:37 AM 21.2 °F 7.3 °F 8.6 °F 58% 29.94 in 10.0 mi West 16.1 mph 27.6 mph N/A   Overcast
4:57 AM 21.2 °F 8.3 °F 10.4 °F 63% 29.94 in 10.0 mi West 13.8 mph 24.2 mph N/A   Overcast
5:17 AM 21.2 °F 8.9 °F 12.2 °F 68% 29.95 in 10.0 mi West 12.7 mph 23.0 mph N/A   Overcast
5:37 AM 21.2 °F 8.9 °F 12.2 °F 68% 29.94 in 10.0 mi WNW 12.7 mph 20.7 mph N/A   Overcast
5:57 AM 21.2 °F 8.9 °F 12.2 °F 68% 29.94 in 10.0 mi WNW 12.7 mph 20.7 mph N/A   Overcast
6:17 AM 21.2 °F 8.9 °F 14.0 °F 74% 29.95 in 10.0 mi West 12.7 mph 20.7 mph N/A   Overcast
6:37 AM 21.2 °F 8.9 °F 14.0 °F 74% 29.95 in 10.0 mi WNW 12.7 mph 20.7 mph N/A   Overcast
6:57 AM 21.2 °F 10.9 °F 14.0 °F 74% 29.95 in 10.0 mi NW 9.2 mph 21.9 mph N/A   Overcast
7:17 AM 21.2 °F 16.4 °F 15.8 °F 80% 29.96 in 10.0 mi WNW 3.5 mph 17.3 mph N/A   Overcast
7:37 AM 21.2 °F 11.7 °F 17.6 °F 86% 29.97 in 10.0 mi WNW 8.1 mph 23.0 mph N/A   Overcast
7:57 AM 21.2 °F 8.9 °F 17.6 °F 86% 29.96 in 7.0 mi NW 12.7 mph 21.9 mph N/A   Overcast
8:17 AM 21.2 °F 9.5 °F 17.6 °F 86% 29.97 in 10.0 mi NW 11.5 mph 21.9 mph N/A   Overcast
8:37 AM 23.0 °F 14.7 °F 17.6 °F 80% 29.96 in 10.0 mi NW 6.9 mph 25.3 mph N/A   Overcast
8:57 AM 23.0 °F 10.6 °F 17.6 °F 80% 29.96 in 10.0 mi WNW 13.8 mph 27.6 mph N/A   Overcast
9:17 AM 23.0 °F 8.0 °F 17.6 °F 80% 29.96 in 10.0 mi NW 20.7 mph 31.1 mph N/A   Overcast
9:37 AM 23.0 °F 11.7 °F 17.6 °F 80% 29.97 in 10.0 mi NW 11.5 mph 19.6 mph N/A   Overcast
9:57 AM 23.0 °F 12.4 °F 17.6 °F 80% 29.97 in 10.0 mi NNW 10.4 mph 32.2 mph N/A   Overcast
10:17 AM 23.0 °F 13.1 °F 17.6 °F 80% 29.98 in 10.0 mi WNW 9.2 mph 25.3 mph N/A   Overcast
10:37 AM 23.0 °F 8.0 °F 17.6 °F 80% 29.97 in 10.0 mi NW 20.7 mph 36.8 mph N/A   Overcast
10:57 AM 23.0 °F 9.6 °F 17.6 °F 80% 29.98 in 10.0 mi NW 16.1 mph 27.6 mph N/A   Overcast
11:17 AM 26.6 °F 17.5 °F 19.4 °F 74% 29.98 in 10.0 mi WNW 9.2 mph 20.7 mph N/A   Overcast
11:37 AM 26.6 °F 14.7 °F 17.6 °F 69% 29.98 in 10.0 mi WNW 15.0 mph 29.9 mph N/A   Overcast
11:57 AM 28.4 °F 21.2 °F 19.4 °F 69% 29.98 in 10.0 mi NW 6.9 mph 18.4 mph N/A   Overcast
12:17 PM 28.4 °F 19.1 °F 19.4 °F 69% 29.97 in 10.0 mi WNW 10.4 mph 19.6 mph N/A   Mostly Cloudy
12:37 PM 28.4 °F 20.4 °F 19.4 °F 69% 29.96 in 10.0 mi WNW 8.1 mph 23.0 mph N/A   Scattered Clouds
12:57 PM 28.4 °F 18.0 °F 19.4 °F 69% 29.95 in 10.0 mi WNW 12.7 mph 24.2 mph N/A   Scattered Clouds
1:17 PM 28.4 °F 16.6 °F 19.4 °F 69% 29.94 in 10.0 mi WNW 16.1 mph 29.9 mph N/A   Clear
1:37 PM 28.4 °F 17.0 °F 17.6 °F 64% 29.94 in 10.0 mi WNW 15.0 mph 26.5 mph N/A   Clear
1:57 PM 28.4 °F 22.2 °F 17.6 °F 64% 29.94 in 10.0 mi West 5.8 mph 23.0 mph N/A   Clear
2:17 PM 28.4 °F 24.6 °F 17.6 °F 64% 29.94 in 10.0 mi SSW 3.5 mph - N/A   Clear
2:37 PM 28.4 °F 23.3 °F 17.6 °F 64% 29.94 in 10.0 mi SSW 4.6 mph - N/A   Clear
2:57 PM 28.4 °F 22.2 °F 17.6 °F 64% 29.95 in 10.0 mi SW 5.8 mph - N/A   Clear
3:17 PM 28.4 °F 19.1 °F 17.6 °F 64% 29.95 in 10.0 mi NW 10.4 mph 19.6 mph N/A   Clear
3:37 PM 28.4 °F 15.4 °F 17.6 °F 64% 29.95 in 10.0 mi West 19.6 mph 29.9 mph N/A   Clear
3:57 PM 26.6 °F 13.8 °F 17.6 °F 69% 29.96 in 10.0 mi WNW 17.3 mph 29.9 mph N/A   Clear
4:17 PM 26.6 °F 13.4 °F 17.6 °F 69% 29.96 in 10.0 mi WNW 18.4 mph 32.2 mph N/A   Clear
4:37 PM 26.6 °F 15.7 °F 17.6 °F 69% 29.97 in 10.0 mi WNW 12.7 mph 25.3 mph N/A   Clear
4:57 PM 24.8 °F 11.9 °F 17.6 °F 74% 29.97 in 10.0 mi WNW 16.1 mph 21.9 mph N/A   Clear
5:17 PM 23.0 °F 9.6 °F 17.6 °F 80% 29.96 in 10.0 mi WNW 16.1 mph 20.7 mph N/A   Clear
5:37 PM 23.0 °F 7.6 °F 17.6 °F 80% 29.96 in 10.0 mi WNW 21.9 mph 25.3 mph N/A   Clear
5:57 PM 23.0 °F 8.7 °F 17.6 °F 80% 29.97 in 10.0 mi WNW 18.4 mph 26.5 mph N/A   Clear
6:17 PM 23.0 °F 11.1 °F 17.6 °F 80% 29.97 in 10.0 mi WNW 12.7 mph 20.7 mph N/A   Clear
6:37 PM 23.0 °F 13.1 °F 15.8 °F 74% 29.98 in 10.0 mi NW 9.2 mph - N/A   Clear
6:57 PM 23.0 °F 12.4 °F 15.8 °F 74% 29.98 in 10.0 mi WNW 10.4 mph - N/A   Clear
7:17 PM 23.0 °F 18.4 °F 14.0 °F 68% 29.98 in 10.0 mi North 3.5 mph - N/A   Clear
7:37 PM 21.2 °F - 14.0 °F 74% 29.98 in 10.0 mi Calm Calm - N/A   Clear
7:57 PM 23.0 °F - 14.0 °F 68% 29.98 in 10.0 mi Calm Calm - N/A   Clear
8:17 PM 24.8 °F 12.4 °F 15.8 °F 69% 29.96 in 10.0 mi NW 15.0 mph 26.5 mph N/A   Clear
8:37 PM 26.6 °F 19.1 °F 17.6 °F 69% 29.96 in 10.0 mi WNW 6.9 mph 19.6 mph N/A   Clear
8:57 PM 24.8 °F - 14.0 °F 64% 29.96 in 10.0 mi Calm Calm - N/A   Clear
9:17 PM 26.6 °F 22.6 °F 17.6 °F 69% 29.95 in 10.0 mi WNW 3.5 mph 9.2 mph N/A   Clear
9:37 PM 24.8 °F 19.1 °F 15.8 °F 69% 29.96 in 10.0 mi WNW 4.6 mph - N/A   Clear
9:57 PM 26.6 °F 15.2 °F 17.6 °F 69% 29.94 in 10.0 mi WNW 13.8 mph 18.4 mph N/A   Clear
10:17 PM 28.4 °F 22.2 °F 19.4 °F 69% 29.93 in 10.0 mi West 5.8 mph - N/A   Clear
10:57 PM 26.6 °F 22.6 °F 15.8 °F 64% 29.92 in 10.0 mi East 3.5 mph - N/A   Clear
11:17 PM 21.2 °F - 14.0 °F 74% 29.92 in 10.0 mi Calm Calm - N/A   Clear
11:37 PM 23.0 °F - 15.8 °F 74% 29.92 in 10.0 mi Calm Calm - N/A   Clear
11:57 PM 26.6 °F - 17.6 °F 69% 29.91 in 10.0 mi Calm Calm - N/A   Clear